Torna al catalogo

STARLINK-6108

AttivoComunicazioniVLEO
NORAD 57155·PAYLOAD·🇺🇸 United States

Lanciato Jun 23, 2023 da Cape Canaveral Space Force Station

Loading…

Prossimi Passaggi (prossime 24 ore)

TLE

AggiornatoSource: CelesTrak SupGP

Epoca: Sep 14, 2026, 21:52 UTC

1 57155C 23090BG  26257.91159722  .00017107  00000+0  61975-3 0  2578
2 57155  43.0001 275.1395 0001162 268.2996 225.9843 15.27563099    18

Traccia STARLINK-6108 in tempo reale con AllMySat

Download on the App Store